CW4206 Weather Reports


time (UTC)temp
F
wind
direction
speed
knots
gust
knots
rain 1hr
in
rain 24hr
in
rain mn
in
humidity
%
barometer
mb
20260506044554 65 177 0.9 4.3 0.00 0.00 0.00 79 1015.1
20260506044034 65 0 0.9 4.3 0.00 0.00 0.00 79 1015.1
20260506043535 65 162 0.0 1.7 0.00 0.00 0.00 79 1015.1
20260506043050 65 0 0.0 2.6 0.00 0.00 0.00 78 1015.1
20260506042536 65 0 0.0 5.2 0.00 0.00 0.00 78 1015.0
20260506042032 66 213 0.0 5.2 0.00 0.00 0.00 78 1015.1
20260506041556 66 196 0.0 4.3 0.00 0.00 0.00 77 1015.0
20260506041034 66 85 0.9 3.5 0.00 0.00 0.00 77 1015.0
20260506040533 66 240 0.0 3.5 0.00 0.00 0.00 77 1014.9
20260506040053 66 161 0.9 3.5 0.00 0.00 0.00 77 1015.0
20260506035535 66 0 0.9 2.6 0.00 0.00 0.00 77 1015.0
20260506035035 66 204 0.0 3.5 0.00 0.00 0.00 77 1014.9
20260506034547 66 182 0.9 3.5 0.00 0.00 0.00 76 1014.8
20260506034036 67 183 0.9 3.5 0.00 0.00 0.00 76 1014.9
20260506033535 67 0 0.0 1.7 0.00 0.00 0.00 76 1014.8
20260506033045 67 204 0.0 1.7 0.00 0.00 0.00 76 1014.9
20260506032535 67 0 0.0 1.7 0.00 0.00 0.00 75 1014.8
20260506032034 67 190 0.0 2.6 0.00 0.00 0.00 75 1014.9
20260506031556 67 0 0.0 2.6 0.00 0.00 0.00 74 1014.8
20260506031033 68 153 0.9 2.6 0.00 0.00 0.00 74 1014.7
20260506030535 68 177 0.0 4.3 0.00 0.00 0.00 74 1014.8
20260506030057 68 0 0.9 4.3 0.00 0.00 0.00 73 1014.8
20260506025533 68 0 0.0 2.6 0.00 0.00 0.00 73 1014.8
20260506025034 68 196 0.9 3.5 0.00 0.00 0.00 73 1014.8
20260506024543 69 0 0.0 3.5 0.00 0.00 0.00 72 1014.9
20260506024033 69 210 0.9 3.5 0.00 0.00 0.00 72 1014.7
20260506023534 69 227 0.0 2.6 0.00 0.00 0.00 72 1014.9
20260506023044 69 287 0.0 1.7 0.00 0.00 0.00 71 1014.8
20260506022533 69 184 0.0 3.5 0.00 0.00 0.00 70 1014.6
20260506022033 69 195 0.0 3.5 0.00 0.00 0.00 70 1014.6
20260506021545 69 175 0.0 1.7 0.00 0.00 0.00 69 1014.6
20260506021032 69 193 0.0 2.6 0.00 0.00 0.00 68 1014.6
20260506020535 70 200 0.9 2.6 0.00 0.00 0.00 68 1014.5
20260506020044 70 143 0.0 2.6 0.00 0.00 0.00 67 1014.5
20260506015533 70 239 0.0 1.7 0.00 0.00 0.00 66 1014.4
20260506015033 70 104 0.0 1.7 0.00 0.00 0.00 66 1014.3
20260506014543 70 105 0.0 1.7 0.00 0.00 0.00 65 1014.2
20260506014033 70 209 0.0 1.7 0.00 0.00 0.00 64 1014.2
20260506013533 70 0 0.0 1.7 0.00 0.00 0.00 65 1014.1
20260506013044 70 0 0.0 1.7 0.00 0.00 0.00 64 1014.1
20260506012532 70 169 0.0 1.7 0.00 0.00 0.00 64 1014.0
20260506012035 70 331 0.0 1.7 0.00 0.00 0.00 63 1014.0
20260506011550 70 0 0.0 1.7 0.00 0.00 0.00 63 1013.9
20260506011033 70 331 0.0 0.9 0.00 0.00 0.00 63 1013.9
20260506010532 71 0 0.0 0.9 0.00 0.00 0.00 61 1013.8
20260506010046 71 0 0.0 0.0 0.00 0.00 0.00 61 1013.8
20260506005532 71 0 0.0 0.0 0.00 0.00 0.00 60 1013.8
20260506005036 72 0 0.0 0.9 0.00 0.00 0.00 59 1013.7
20260506004618 72 0 0.0 0.9 0.00 0.00 0.00 59 1013.8
20260506004033 72 0 0.0 1.7 0.00 0.00 0.00 58 1013.7
20260506003533 73 0 0.0 3.5 0.00 0.00 0.00 58 1013.8
20260506003043 73 284 0.0 3.5 0.00 0.00 0.00 57 1013.7
20260506002533 73 227 0.0 2.6 0.00 0.00 0.00 57 1013.8
20260506002034 73 0 0.0 5.2 0.00 0.00 0.00 56 1013.7
20260506001547 73 0 0.9 5.2 0.00 0.00 0.00 56 1013.7
20260506001032 73 269 0.9 5.2 0.00 0.00 0.00 56 1013.7
20260506000532 74 0 0.0 2.6 0.00 0.00 0.00 55 1013.6
20260506000048 74 146 0.0 1.7 0.00 0.00 0.00 55 1013.6
20260505235532 74 0 0.0 4.3 0.00 0.00 0.00 54 1013.6
20260505235033 75 0 0.0 4.3 0.00 0.00 0.00 54 1013.5
20260505234606 75 216 0.0 5.2 0.00 0.00 0.00 54 1013.5
20260505234032 75 223 0.0 5.2 0.00 0.00 0.00 53 1013.5
20260505233532 75 240 0.9 9.6 0.00 0.00 0.00 53 1013.4
20260505233042 75 323 0.9 9.6 0.00 0.00 0.00 52 1013.4
20260505232532 75 198 0.0 5.2 0.00 0.00 0.00 52 1013.4
20260505232034 76 200 0.0 5.2 0.00 0.00 0.00 52 1013.5
20260505231546 76 224 0.9 4.3 0.00 0.00 0.00 51 1013.5
20260505231033 76 67 0.9 3.5 0.00 0.00 0.00 51 1013.5
20260505230532 76 0 0.0 2.6 0.00 0.00 0.00 51 1013.4
20260505230050 76 0 0.0 2.6 0.00 0.00 0.00 50 1013.4
20260505225534 77 0 0.0 5.2 0.00 0.00 0.00 52 1013.5
20260505225033 77 147 0.9 7.8 0.00 0.00 0.00 50 1013.5
20260505224546 77 0 1.7 7.8 0.00 0.00 0.00 50 1013.6
20260505224032 77 138 0.0 7.8 0.00 0.00 0.00 50 1013.6
20260505223532 77 234 0.0 7.8 0.00 0.00 0.00 50 1013.5
20260505223101 77 155 0.9 6.1 0.00 0.00 0.00 49 1013.4
20260505222533 78 159 1.7 7.0 0.00 0.00 0.00 48 1013.4
20260505222033 78 228 0.9 7.0 0.00 0.00 0.00 48 1013.5
20260505221606 78 240 0.9 8.7 0.00 0.00 0.00 47 1013.4
20260505221032 79 123 0.9 8.7 0.00 0.00 0.00 47 1013.3
20260505220535 79 201 0.9 8.7 0.00 0.00 0.00 47 1013.4
20260505215533 79 209 0.9 9.6 0.00 0.00 0.00 45 1013.3
20260505215032 79 220 0.9 10.4 0.00 0.00 0.00 45 1013.5
20260505214603 80 16 1.7 10.4 0.00 0.00 0.00 44 1013.2
20260505214033 80 173 1.7 10.4 0.00 0.00 0.00 45 1013.3
20260505213532 80 242 0.9 10.4 0.00 0.00 0.00 45 1013.2
20260505213046 80 204 0.9 6.1 0.00 0.00 0.00 46 1013.3
20260505212530 80 236 0.9 9.6 0.00 0.00 0.00 45 1013.4
20260505212030 80 243 1.7 10.4 0.00 0.00 0.00 45 1013.5
20260505211558 80 199 2.6 10.4 0.00 0.00 0.00 45 1013.5
20260505211033 80 159 1.7 9.6 0.00 0.00 0.00 46 1013.5
20260505210531 79 162 0.9 9.6 0.00 0.00 0.00 45 1013.5
20260505210048 79 202 0.9 8.7 0.00 0.00 0.00 46 1013.5
20260505205531 79 148 1.7 10.4 0.00 0.00 0.00 45 1013.6
20260505205032 80 231 1.7 10.4 0.00 0.00 0.00 44 1013.6
20260505204549 80 346 0.9 9.6 0.00 0.00 0.00 45 1013.6
20260505204032 80 239 0.9 9.6 0.00 0.00 0.00 42 1013.5
20260505203533 81 90 1.7 9.6 0.00 0.00 0.00 43 1013.5
20260505203046 81 202 1.7 9.6 0.00 0.00 0.00 41 1013.4
20260505202533 81 125 1.7 9.6 0.00 0.00 0.00 41 1013.3
20260505202032 82 150 1.7 7.0 0.00 0.00 0.00 40 1013.6
20260505201550 82 198 1.7 10.4 0.00 0.00 0.00 40 1013.6
20260505201032 83 137 1.7 10.4 0.00 0.00 0.00 41 1013.7
20260505200533 83 172 0.9 9.6 0.00 0.00 0.00 41 1013.7
20260505200056 83 180 1.7 12.2 0.00 0.00 0.00 41 1013.7
20260505195532 83 227 1.7 12.2 0.00 0.00 0.00 40 1013.7
20260505195031 84 0 1.7 10.4 0.00 0.00 0.00 39 1013.6
20260505194543 85 248 1.7 6.1 0.00 0.00 0.00 39 1013.6
20260505194033 85 211 1.7 7.0 0.00 0.00 0.00 39 1013.7
20260505193533 85 161 0.9 7.8 0.00 0.00 0.00 39 1013.8
20260505193047 85 0 1.7 12.2 0.00 0.00 0.00 38 1013.8
20260505192534 86 34 0.9 12.2 0.00 0.00 0.00 39 1013.7
20260505192032 86 205 1.7 10.4 0.00 0.00 0.00 37 1013.9
20260505191547 86 119 0.9 7.8 0.00 0.00 0.00 38 1014.1
20260505191033 86 157 1.7 7.8 0.00 0.00 0.00 37 1014.1
20260505190532 86 219 0.9 6.1 0.00 0.00 0.00 37 1014.1
20260505190049 86 197 1.7 14.8 0.00 0.00 0.00 37 1014.2
20260505185532 85 166 0.9 14.8 0.00 0.00 0.00 36 1014.3
20260505185032 86 158 2.6 11.3 0.00 0.00 0.00 37 1014.4
20260505184545 86 135 1.7 11.3 0.00 0.00 0.00 35 1014.5
20260505184032 86 157 1.7 8.7 0.00 0.00 0.00 37 1014.7
20260505183531 86 0 0.9 7.8 0.00 0.00 0.00 37 1014.6
20260505183048 86 32 0.9 7.8 0.00 0.00 0.00 36 1014.7
20260505182533 86 203 1.7 8.7 0.00 0.00 0.00 35 1014.8
20260505182031 86 204 1.7 8.7 0.00 0.00 0.00 34 1015.0
20260505181543 86 191 1.7 6.1 0.00 0.00 0.00 34 1015.0
20260505181036 86 203 0.9 9.6 0.00 0.00 0.00 35 1015.1
20260505180533 85 188 0.0 9.6 0.00 0.00 0.00 38 1015.0
20260505180043 85 82 0.9 10.4 0.00 0.00 0.00 38 1015.2
20260505175532 84 269 2.6 10.4 0.00 0.00 0.00 37 1015.0
20260505175032 85 233 0.9 7.0 0.00 0.00 0.00 37 1015.0
20260505174558 84 175 0.9 4.3 0.00 0.00 0.00 38 1015.1
20260505174032 84 198 1.7 6.1 0.00 0.00 0.00 37 1015.0
20260505173536 84 294 1.7 7.8 0.00 0.00 0.00 39 1015.0
20260505173050 84 165 0.9 7.8 0.00 0.00 0.00 37 1015.1
20260505172532 84 173 0.9 7.8 0.00 0.00 0.00 39 1015.2
20260505172032 84 97 0.9 4.3 0.00 0.00 0.00 38 1015.2
20260505171543 84 196 0.9 6.1 0.00 0.00 0.00 38 1015.2
20260505171030 84 186 0.9 6.1 0.00 0.00 0.00 39 1015.3
20260505170531 84 205 0.9 6.1 0.00 0.00 0.00 40 1015.2
20260505170048 83 213 0.9 4.3 0.00 0.00 0.00 41 1015.4
20260505165530 83 219 0.9 4.3 0.00 0.00 0.00 41 1015.5
20260505165032 82 0 0.9 4.3 0.00 0.00 0.00 40 1015.5
20260505164546 82 221 0.9 4.3 0.00 0.00 0.00 41 1015.6
20260505164032 82 220 0.9 8.7 0.00 0.00 0.00 42 1015.5
20260505163531 82 213 0.9 8.7 0.00 0.00 0.00 42 1015.7
20260505163049 81 0 0.0 5.2 0.00 0.00 0.00 44 1015.6
20260505162530 81 244 0.9 8.7 0.00 0.00 0.00 45 1015.8
20260505162030 80 277 1.7 8.7 0.00 0.00 0.00 46 1015.9
20260505161544 80 188 0.0 7.0 0.00 0.00 0.00 46 1016.0
20260505161030 80 234 0.9 7.8 0.00 0.00 0.00 46 1016.2
20260505160532 79 200 1.7 9.6 0.00 0.00 0.00 45 1016.2
20260505153050 77 322 0.9 8.7 0.00 0.00 0.00 49 1016.4
20260505152531 76 0 0.9 4.3 0.00 0.00 0.00 52 1016.4
20260505152033 76 240 0.9 6.1 0.00 0.00 0.00 53 1016.3
20260505151546 75 290 1.7 6.1 0.00 0.00 0.00 53 1016.2
20260505151031 75 214 1.7 6.1 0.00 0.00 0.00 52 1016.3
20260505150530 75 219 0.9 7.0 0.00 0.00 0.00 54 1016.3
20260505140533 70 240 1.7 4.3 0.00 0.00 0.00 61 1016.2
20260505125035 63 196 0.9 6.1 0.00 0.00 0.00 73 1016.6
20260505124605 62 222 0.0 3.5 0.00 0.00 0.00 76 1016.5
20260505124032 62 200 0.9 2.6 0.00 0.00 0.00 76 1016.6
20260505123531 61 214 0.0 2.6 0.00 0.00 0.00 78 1016.4
20260505123058 61 211 0.0 3.5 0.00 0.00 0.00 79 1016.5
20260505122532 60 113 0.0 4.3 0.00 0.00 0.00 78 1016.5
20260505122032 60 0 0.9 4.3 0.00 0.00 0.00 79 1016.5
20260505121547 59 286 0.0 2.6 0.00 0.00 0.00 79 1016.4
20260505121034 59 252 0.0 4.3 0.00 0.00 0.00 80 1016.3
20260505120532 59 222 0.0 4.3 0.00 0.00 0.00 81 1016.3
20260505120053 58 0 0.0 7.8 0.00 0.00 0.00 81 1016.3
20260505115532 58 269 0.0 7.8 0.00 0.00 0.00 82 1016.3
20260505115032 57 238 0.9 3.5 0.00 0.00 0.00 82 1016.3
20260505114549 57 0 0.0 3.5 0.00 0.00 0.00 83 1016.3
20260505114031 56 234 0.0 2.6 0.00 0.00 0.00 84 1016.3
20260505113538 56 234 0.0 2.6 0.00 0.00 0.00 84 1016.2
20260505113045 56 0 0.0 2.6 0.00 0.00 0.00 85 1016.2
20260505112536 56 0 0.0 2.6 0.00 0.00 0.00 84 1016.1
20260505112034 56 0 0.0 1.7 0.00 0.00 0.00 85 1016.1
20260505111542 55 0 0.0 1.7 0.00 0.00 0.00 84 1016.1
20260505111031 55 0 0.0 0.9 0.00 0.00 0.00 85 1015.9
20260505110532 55 0 0.0 0.0 0.00 0.00 0.00 85 1015.9
20260505102034 55 0 0.0 0.9 0.00 0.00 0.00 84 1015.5
20260505101546 55 0 0.0 0.0 0.00 0.00 0.00 84 1015.4
20260505101033 55 0 0.0 0.0 0.00 0.00 0.00 84 1015.4
20260505100532 55 0 0.0 0.9 0.00 0.00 0.00 84 1015.3
20260505100046 55 0 0.0 0.9 0.00 0.00 0.00 84 1015.3
20260505095532 55 0 0.0 0.0 0.00 0.00 0.00 84 1015.2
20260505095032 55 0 0.0 0.0 0.00 0.00 0.00 84 1015.3
20260505094544 55 0 0.0 0.0 0.00 0.00 0.00 83 1015.2
20260505094030 55 0 0.0 0.0 0.00 0.00 0.00 83 1015.3
20260505093531 56 0 0.0 0.9 0.00 0.00 0.00 83 1015.1
20260505093040 56 0 0.0 0.9 0.00 0.00 0.00 84 1015.0
20260505092532 56 0 0.0 0.9 0.00 0.00 0.00 83 1015.2
20260505092029 56 0 0.0 0.9 0.00 0.00 0.00 83 1015.0
20260505091559 56 0 0.0 0.9 0.00 0.00 0.00 83 1015.0
20260505091033 56 0 0.0 0.9 0.00 0.00 0.00 83 1015.1
20260505090532 56 0 0.0 0.9 0.00 0.00 0.00 82 1015.1
20260505090048 56 0 0.0 0.9 0.00 0.00 0.00 82 1015.0
20260505085532 56 0 0.0 1.7 0.00 0.00 0.00 82 1015.0
20260505085033 56 0 0.0 1.7 0.00 0.00 0.00 82 1015.0
20260505084548 56 0 0.0 1.7 0.00 0.00 0.00 82 1015.0
20260505084031 57 0 0.0 1.7 0.00 0.00 0.00 82 1015.0
20260505083531 57 0 0.0 1.7 0.00 0.00 0.00 82 1014.7
20260505083046 57 0 0.0 1.7 0.00 0.00 0.00 81 1014.9
20260505082531 57 0 0.0 0.9 0.00 0.00 0.00 81 1014.9
20260505082030 57 0 0.0 1.7 0.00 0.00 0.00 81 1014.8
20260505081543 57 0 0.0 1.7 0.00 0.00 0.00 80 1014.8
20260505081033 57 0 0.0 0.9 0.00 0.00 0.00 81 1014.7
20260505080531 58 0 0.0 1.7 0.00 0.00 0.00 80 1014.8
20260505080103 58 0 0.0 5.2 0.00 0.00 0.00 80 1014.8
20260505075532 58 0 0.0 5.2 0.00 0.00 0.00 80 1014.9
20260505075032 58 0 0.0 3.5 0.00 0.00 0.00 79 1014.8
20260505074542 58 196 0.0 3.5 0.00 0.00 0.00 79 1014.8
20260505074031 58 0 0.0 2.6 0.00 0.00 0.00 79 1014.8
20260505073532 59 0 0.0 2.6 0.00 0.00 0.00 78 1014.7
20260505073052 59 0 0.0 2.6 0.00 0.00 0.00 77 1014.6
20260505072528 59 0 0.0 1.7 0.00 0.00 0.00 77 1014.6
20260505072034 59 0 0.0 1.7 0.00 0.00 0.00 77 1014.6
20260505071546 60 0 0.0 1.7 0.00 0.00 0.00 77 1014.6
20260505071033 60 0 0.0 4.3 0.00 0.00 0.00 76 1014.6
20260505070533 60 0 0.0 4.3 0.00 0.00 0.00 76 1014.5
20260505070052 60 233 0.0 4.3 0.00 0.00 0.00 75 1014.5
20260505065532 60 0 0.0 3.5 0.00 0.00 0.00 75 1014.5
20260505065034 60 0 0.0 2.6 0.00 0.00 0.00 76 1014.6
20260505064546 60 0 0.0 2.6 0.00 0.00 0.00 75 1014.6
20260505064033 61 0 0.0 4.3 0.00 0.00 0.00 75 1014.6
20260505063534 61 0 0.9 4.3 0.00 0.00 0.00 74 1014.6
20260505063108 61 0 0.9 3.5 0.00 0.00 0.00 74 1014.5
20260505062532 61 0 0.0 7.0 0.00 0.00 0.00 75 1014.5
20260505062033 61 0 0.0 7.0 0.00 0.00 0.00 74 1014.5
20260505061545 61 196 0.0 2.6 0.00 0.00 0.00 74 1014.5
20260505061037 61 0 0.0 2.6 0.00 0.00 0.00 74 1014.5
20260505060534 61 0 0.0 4.3 0.00 0.00 0.00 74 1014.6
20260505060046 61 0 0.9 4.3 0.00 0.00 0.00 74 1014.6
20260505055533 61 233 0.0 2.6 0.00 0.00 0.00 74 1014.5
20260505055035 61 0 0.0 4.3 0.00 0.00 0.00 74 1014.6
20260505054551 62 221 0.0 4.3 0.00 0.00 0.00 73 1014.6
20260505054035 62 223 0.0 6.1 0.00 0.00 0.00 73 1014.6
20260505053535 62 278 0.0 6.1 0.00 0.00 0.00 73 1014.5
20260505053055 62 194 0.0 4.3 0.00 0.00 0.00 73 1014.7
20260505052534 62 0 0.0 3.5 0.00 0.00 0.00 73 1014.7
20260505052033 62 254 0.0 2.6 0.00 0.00 0.00 73 1014.7
20260505051540 62 0 0.0 2.6 0.00 0.00 0.00 73 1014.7
20260505051033 62 0 0.0 4.3 0.00 0.00 0.00 72 1014.7
20260505050534 62 0 0.0 5.2 0.00 0.00 0.00 72 1014.8